Athens, Tennessee
Current Conditions -  °F | °C
As of 5:15 PM on Tuesday 21 Oct 2014 (Local Time) from KMMI Reporting Station
Clear Clear  
Wind Chill: 66°   Ceiling: Unl
Heat Index: 66°   Visibility: 10mi
Dew Point: 43°   Wind: 9mph
Humidity: 43%   Direction: 330°NNW
Pressure: 30.01"   Gusts: NA
Location:  35.44°N, 84.59°W
Report Text: KMMI 212115Z AUTO 33008KT 10SM CLR 19/06 A3001 RMK
Loading
Personal Weather Stations






























Interactive Weather Map New forecast layout! Learn more

10-Day Weather Forecast

Advertisements
Track Severe Weather on mobile